Regional Weather Roundup
Issued by NWS Nashville, TN

Home | Current Version | Previous Version | Text Only | Print | Product List | Glossary On
Versions: 1 2 3 4 5 6 7 8 9 10 11 12 13 14 15 16 17 18 19 20 21 22 23 24 25 26 27 28 29 30 31 32 33 34 35 36 37 38 39 40 41 42 43 44 45 46 47 48 49 50
000
ASUS44 KOHX 182015
RWROHX
MIDDLE TENNESSEE HOURLY WEATHER ROUNDUP
NATIONAL WEATHER SERVICE NASHVILLE TN
200 PM CST THU DEC 18 2014

NOTE: "FAIR" INDICATES FEW OR NO CLOUDS BELOW 12,000 FEET WITH
NO SIGNIFICANT WEATHER AND/OR OBSTRUCTIONS TO VISIBILITY.

* THESE REPORTS ARE NOT UNDER NWS QUALITY CONTROL AND MAY NOT
  REPORT WEATHER SUCH AS PRECIPITATION AND FOG.


TNZ005>011-023>034-057-059-062>066-078-080-182100
...NORTHERN MIDDLE TENNESSEE...

CITY           SKY/WX    TMP DP  RH WIND       PRES   REMARKS
CLARKSVILLE    CLOUDY    35  30  82 N6        30.22F WCI  30
CROSSVILLE     CLOUDY    42  32  67 NW8       30.13F
GALLATIN       CLOUDY    35  32  89 N6        30.21F WCI  30
DICKSON        MOSUNNY   36  30  80 NE6       30.18F WCI  31
LEBANON        CLOUDY    36  32  85 N5        30.18F WCI  32
LIVINGSTON     CLOUDY    34  31  89 N7        30.17  WCI  28
NASHVILLE      CLOUDY    39  34  81 N6        30.21F WCI  35
WEST NASHVILLE CLOUDY    36  34  93 CALM      30.21F
PORTLAND       CLOUDY    32  28  86 NE3       30.18F
SMYRNA         CLOUDY    38  33  82 N5        30.22F WCI  34
SPARTA         CLOUDY    37  34  87 N6        30.17S WCI  33
$$
TNZ056-058-060-061-075>077-079-093>097-182100
...SOUTHERN MIDDLE TENNESSEE...

CITY           SKY/WX    TMP DP  RH WIND       PRES   REMARKS
LEWISBURG      CLOUDY    41  35  79 CALM      30.19S
MCMINNVILLE    CLOUDY    39  36  87 CALM      30.17R
MURFREESBORO   CLOUDY    38  33  82 N8        30.20F WCI  32
SHELBYVILLE    CLOUDY    39  36  87 N5        30.19S
TULLAHOMA      CLOUDY    39  34  81 NW6       30.17S WCI  35
WINCHESTER     CLOUDY    43  36  75 CALM      30.17R
$$


...KEY TO REMARKS...
VSB - VISIBILITY IN MILES
WCI - WIND CHILL INDEX
HX  - HEAT INDEX




USA.gov is the U.S. government's official web portal to all federal, state and local government web resources and services.